Wind_Speed
45 45 45 43 42 42 42 39 38 35 35 33 33 35 32 34 34 27 32 40 38 35 35 34 28 24 38 43 38 32 27 27 27 27 27 25 24 23 23 23 24 26 24 24 23 22 20 18 19 22 25 26 24 23 22 21 19 16 16 16 16 17 16 16 18 20 20 20 21 22 24 25 26 27 28 29 28 28 28 28 28 27 27 28 27 27
47 47 45 42 42 43 41 41 39 36 36 35 34 36 36 35 31 27 33 40 39 35 34 37 31 25 39 42 38 35 31 29 27 25 25 25 25 25 25 24 26 28 25 24 23 21 20 18 20 24 25 25 24 23 21 20 19 16 16 16 15 15 16 18 20 20 19 19 20 20 20 20 22 23 25 28 29 28 28 27 27 27 27 27 27 27
48 47 44 42 44 43 42 42 39 37 40 40 38 37 36 35 30 30 42 43 38 35 33 37 33 31 42 39 33 35 33 30 27 25 25 26 26 26 26 27 28 28 25 24 22 19 19 19 22 23 22 23 23 22 21 20 20 18 17 16 14 15 17 18 18 18 19 19 18 18 16 16 19 21 22 25 28 29 30 28 28 27 27 26 26 26
48 46 45 44 44 43 44 42 38 39 43 41 39 36 34 34 29 29 42 43 39 35 27 28 31 34 41 37 31 31 27 26 26 26 27 27 26 25 25 27 27 26 23 23 21 18 19 21 22 22 21 22 22 22 22 21 20 18 17 16 16 16 16 17 17 17 19 19 18 18 19 20 23 23 23 24 26 27 29 29 28 28 27 27 27 26
47 45 44 45 45 45 44 40 39 42 43 39 36 35 31 29 26 27 38 43 42 36 26 23 30 36 38 36 33 30 26 27 29 29 30 29 28 28 27 27 27 25 23 21 20 20 20 21 21 21 21 21 21 22 23 22 21 20 19 18 18 17 17 18 18 18 18 17 16 17 19 21 24 24 25 26 27 28 29 29 29 28 28 28 28 27
46 45 45 45 44 44 42 41 42 42 39 37 37 37 31 24 26 30 37 44 42 39 36 31 30 34 38 38 35 31 28 31 31 29 31 31 30 31 31 30 29 26 24 21 21 22 20 19 20 21 21 21 20 21 23 23 23 23 22 20 19 18 19 20 19 19 19 16 15 17 20 22 24 25 26 27 28 29 31 31 30 29 28 28 28 28
47 45 45 44 43 44 43 41 41 39 37 38 38 39 34 25 24 26 28 39 42 38 41 40 33 28 33 39 38 33 30 31 32 31 31 33 32 31 31 30 29 26 24 23 23 21 18 18 20 20 21 21 21 22 23 24 24 24 23 21 19 19 19 20 19 20 19 19 20 22 23 24 24 25 26 27 28 30 32 33 32 31 30 30 29 29
48 45 44 45 44 44 43 40 40 39 38 37 36 39 38 31 25 22 22 33 38 32 34 41 37 27 27 36 37 36 34 31 32 32 31 34 35 32 29 28 27 25 24 24 23 21 18 18 20 20 21 21 21 22 23 23 23 23 22 20 18 18 18 18 18 18 18 20 22 23 24 24 24 25 26 27 28 30 32 33 33 32 31 31 31 30
46 45 47 47 44 42 41 40 40 39 37 33 32 39 42 36 28 23 21 26 27 23 26 34 37 33 29 34 34 36 38 33 31 32 32 34 36 32 29 27 26 25 25 24 22 20 18 18 19 21 21 21 21 22 22 22 22 22 20 18 17 16 16 16 17 18 18 19 21 22 23 24 25 25 26 27 28 29 31 32 33 32 31 31 30 30
43 44 49 48 43 40 40 40 39 40 38 28 23 35 45 38 29 24 19 21 22 21 24 29 34 33 30 33 33 33 38 36 33 34 34 34 35 31 29 28 27 26 24 23 21 19 19 19 20 20 21 20 21 21 21 21 21 20 18 16 15 15 16 17 17 18 18 19 20 22 23 24 25 25 26 27 28 29 30 32 33 33 33 31 29 30
40 46 51 47 41 38 38 39 38 39 37 26 18 30 43 41 35 32 24 20 23 26 28 27 28 31 31 34 33 30 34 36 33 33 33 34 33 30 29 27 26 25 24 22 20 20 20 20 20 20 20 20 20 21 21 20 19 18 17 15 15 16 16 17 17 18 19 20 21 22 23 24 25 25 26 27 28 30 30 31 32 34 34 33 32 32
40 48 50 42 38 39 38 38 39 38 35 27 23 27 36 41 40 39 33 26 26 29 31 28 24 27 32 35 35 33 34 35 32 31 30 32 31 29 28 27 27 26 23 21 20 20 20 20 20 20 20 20 21 21 20 19 18 17 16 15 15 16 17 17 18 19 19 20 21 22 24 25 25 26 27 28 29 31 32 32 32 33 34 35 34 33
39 43 46 43 40 41 39 36 36 39 38 32 29 30 35 39 40 41 39 34 32 30 28 26 23 23 28 34 39 39 36 34 33 31 29 29 29 28 29 28 28 26 23 22 21 21 20 20 20 20 20 22 22 21 20 18 18 17 16 16 16 17 17 18 18 19 20 21 22 23 24 26 27 28 29 30 31 31 32 33 33 33 33 34 35 34
36 34 42 45 42 42 42 37 36 42 46 40 35 35 39 40 42 44 42 40 41 35 23 18 22 25 29 37 42 39 35 34 31 27 27 29 29 29 30 29 27 25 23 22 21 20 20 20 20 21 22 23 22 21 20 19 18 17 17 17 18 18 18 18 19 20 21 23 23 24 25 27 28 28 29 30 30 30 31 32 33 34 34 33 34 34
36 34 43 47 45 45 44 40 39 43 47 44 39 38 38 38 42 46 43 39 41 38 25 18 24 32 35 40 44 39 35 34 29 25 26 29 31 31 31 30 27 25 23 22 21 20 20 21 22 23 23 23 22 20 19 19 19 18 18 19 19 19 20 20 21 22 23 24 25 26 26 27 27 27 27 28 29 29 30 31 32 34 35 35 34 34
39 38 41 44 45 47 46 41 39 44 46 43 42 42 39 34 32 37 39 33 30 30 28 27 31 37 38 40 44 41 35 32 29 28 28 30 31 31 30 29 26 25 23 21 20 20 21 21 22 23 23 22 21 19 19 18 18 18 19 20 20 21 21 22 23 24 25 26 27 27 26 26 26 27 28 28 29 30 31 31 31 32 35 36 36 35
43 38 37 43 46 47 48 41 37 42 45 43 44 46 44 34 21 21 30 31 26 23 26 33 38 39 39 38 40 40 37 32 30 30 29 30 30 30 29 28 26 25 23 22 21 21 21 22 22 22 22 22 21 20 19 18 18 19 20 20 21 22 22 23 24 25 26 27 27 27 27 27 28 28 28 29 30 31 32 33 33 33 34 36 37 37
39 31 31 41 45 44 47 43 36 37 38 38 43 46 44 38 26 17 20 26 27 23 22 33 42 43 40 36 36 38 36 34 33 32 30 29 30 30 29 28 27 25 24 23 23 22 21 21 22 23 23 22 21 21 20 20 20 20 20 21 22 22 23 24 25 26 27 27 27 28 28 28 29 30 30 31 31 32 33 34 34 35 35 35 37 37
34 28 25 33 41 43 44 43 38 36 35 33 37 42 43 43 40 32 24 27 31 28 23 29 38 41 39 36 34 34 35 35 34 33 31 30 31 31 30 28 27 26 25 25 23 21 21 21 23 24 24 24 23 22 22 21 21 21 21 22 22 23 24 25 26 27 27 28 28 28 29 30 31 31 31 31 32 32 33 34 34 35 35 35 35 35
32 29 24 27 36 41 41 43 43 39 38 34 29 34 41 41 43 41 33 31 30 27 25 29 34 36 34 33 33 32 33 33 33 33 32 31 32 31 30 29 28 27 26 24 23 22 21 22 24 25 26 25 24 23 23 23 22 22 22 23 23 24 25 26 27 27 27 28 28 29 30 31 31 31 30 31 31 31 32 32 33 34 35 36 35 34
32 31 27 25 31 39 42 45 45 39 40 41 33 34 40 37 37 38 33 30 26 23 25 29 33 33 31 31 32 33 32 32 32 32 32 32 32 31 30 30 29 27 25 24 23 23 23 24 25 26 27 26 25 24 24 24 24 23 23 23 24 25 26 26 27 27 28 28 28 29 30 30 30 30 29 29 30 30 30 31 32 33 34 35 35 34
34 34 30 24 26 38 42 41 41 38 40 43 39 36 37 34 33 36 34 31 27 24 24 27 31 33 32 32 33 34 33 32 32 32 31 32 31 30 31 30 28 27 26 26 25 25 25 26 27 28 28 27 26 25 25 25 24 23 23 24 25 25 26 27 27 28 28 28 28 29 30 29 29 28 28 28 29 29 29 30 30 31 32 33 34 34
33 32 30 25 23 33 39 38 38 36 35 39 37 31 29 28 27 30 33 32 27 22 21 25 31 34 35 35 34 32 30 31 32 32 33 33 32 32 31 31 30 29 29 28 28 27 28 28 28 28 28 28 27 26 26 25 24 24 24 24 25 26 27 28 28 28 28 28 29 29 28 28 28 28 28 28 28 28 29 29 29 29 30 31 32 33
34 32 30 27 23 25 33 35 36 33 29 34 37 30 26 27 25 22 24 25 23 20 21 23 31 36 35 34 32 29 27 30 32 34 35 34 34 33 33 32 32 31 31 30 30 30 30 29 29 29 29 28 27 27 26 25 24 24 24 25 26 27 27 28 28 28 29 29 28 28 27 28 28 28 28 28 28 28 28 28 28 28 27 29 30 31
35 34 32 28 24 26 29 29 33 35 30 29 33 33 29 26 25 23 21 22 23 23 23 24 28 33 33 30 29 27 26 29 31 33 34 34 34 34 33 33 32 32 32 31 31 32 32 31 30 29 29 28 27 27 26 25 24 24 25 26 27 27 28 28 28 28 29 28 27 27 27 28 28 28 28 28 28 27 27 27 27 26 26 27 28 29
33 32 30 26 24 30 35 33 35 39 37 30 29 35 35 26 25 27 23 21 26 28 27 25 23 26 29 28 27 25 26 28 29 30 32 33 33 34 34 33 33 32 32 32 33 33 32 32 31 30 29 28 27 26 25 24 24 25 26 27 27 28 28 28 29 29 29 27 26 26 27 28 27 27 27 27 27 27 26 27 26 26 25 25 26 28
32 32 32 28 26 30 33 31 31 35 38 33 27 33 36 27 25 28 24 22 27 28 27 28 27 27 30 29 26 25 26 27 28 29 31 32 33 33 34 34 33 33 33 33 34 33 32 31 30 30 29 28 27 25 24 25 25 26 27 28 28 28 29 29 30 29 28 26 26 26 27 27 27 26 26 26 27 27 26 26 26 25 25 24 24 26
33 34 36 34 31 32 30 27 27 30 35 33 28 30 31 26 26 30 29 27 27 24 24 27 31 32 32 31 29 26 26 26 27 29 31 32 33 33 33 33 33 33 33 33 32 30 29 30 29 28 27 26 25 24 24 25 26 27 28 28 29 29 29 30 30 29 28 27 26 26 26 26 25 24 24 25 26 26 26 26 26 25 24 24 23 24
32 33 34 33 32 33 33 30 27 27 28 29 29 30 31 31 32 33 33 32 28 25 25 26 27 29 30 31 29 26 25 26 27 29 31 32 32 33 33 33 33 33 32 31 29 27 28 28 27 26 25 25 25 25 25 26 27 28 29 29 30 30 30 30 29 29 29 28 28 27 26 25 24 23 23 23 25 26 26 26 26 26 25 24 24 24
32 33 35 34 31 32 34 32 29 27 28 29 31 33 34 35 33 31 34 36 31 28 28 27 24 25 28 28 27 25 24 24 25 27 30 31 31 32 32 32 32 31 30 28 26 26 27 27 26 25 25 25 25 25 26 27 28 29 30 30 30 31 31 31 30 30 29 29 29 28 26 25 24 24 23 23 25 26 26 27 27 27 27 26 25 25
33 33 35 34 31 32 32 31 30 30 29 29 31 34 34 34 34 33 34 36 34 29 27 25 22 23 24 24 24 24 24 24 25 25 26 27 28 29 30 30 29 28 27 26 25 26 27 27 26 25 26 26 26 27 28 29 30 30 30 30 31 31 32 32 31 31 31 31 30 29 27 26 25 26 25 25 26 27 27 28 29 29 28 27 26 26
32 31 34 33 30 30 31 31 31 30 28 28 31 34 34 32 34 35 32 32 33 29 24 25 24 22 20 20 21 22 23 24 25 25 25 25 25 26 27 26 26 25 24 24 25 26 27 26 26 27 27 28 28 29 29 30 30 30 31 31 31 32 33 33 33 33 32 32 31 29 28 27 27 27 28 28 28 28 29 29 30 30 30 29 28 27
31 29 32 32 28 29 30 31 31 29 28 29 31 33 32 29 30 32 30 29 31 27 23 23 23 21 20 20 19 20 21 22 22 23 24 24 24 24 24 24 23 23 23 24 25 26 26 27 27 28 28 29 29 29 30 30 31 31 31 31 32 33 33 33 34 33 32 32 30 29 29 29 29 29 30 31 31 31 31 31 30 31 31 30 29 28
30 28 30 30 29 29 30 30 29 28 29 30 30 31 31 29 29 31 31 30 30 28 25 22 21 21 21 21 20 21 21 21 21 22 22 22 22 22 22 22 22 23 23 24 25 26 27 27 27 28 28 28 28 29 29 30 31 31 32 32 33 33 33 33 33 32 32 31 31 31 31 31 31 32 32 33 33 33 33 32 32 31 31 30 29 28
30 28 28 30 30 29 29 31 30 29 30 30 29 30 31 30 29 29 29 30 30 29 28 25 23 23 22 21 21 21 21 22 22 22 22 22 22 21 21 22 23 23 24 25 26 27 27 27 27 28 28 28 28 29 29 29 30 31 32 33 33 33 33 33 32 32 32 32 32 32 33 33 33 34 34 34 34 34 33 32 32 32 31 30 29 28
30 29 28 29 31 30 29 31 31 30 29 28 28 29 30 30 30 29 29 30 29 28 28 26 25 24 22 21 21 21 22 22 23 23 23 23 23 23 23 24 25 25 26 27 27 28 27 27 27 28 28 29 29 29 29 29 29 30 32 33 33 34 33 33 33 33 33 33 33 34 34 35 35 35 34 34 34 34 33 32 32 31 31 30 28 27
30 29 29 30 30 29 28 29 29 29 28 28 29 29 29 30 31 30 30 30 29 28 28 26 25 24 23 22 22 22 22 22 23 24 24 24 25 26 26 27 27 28 28 28 29 29 29 29 29 29 30 30 30 30 30 29 29 30 31 32 33 33 33 33 33 34 34 35 35 35 35 35 34 34 33 33 33 33 32 32 32 31 30 30 28 27
28 29 30 29 27 26 28 28 28 28 28 28 29 29 29 29 29 28 28 29 29 28 27 27 26 25 23 22 22 22 22 23 24 24 24 25 26 27 28 28 29 29 29 29 30 31 31 30 30 30 31 31 32 32 31 31 31 31 31 32 32 33 33 34 34 35 36 36 36 36 35 33 32 31 31 31 32 32 31 31 31 31 31 30 29 28
27 28 28 27 25 25 27 26 26 27 28 28 28 28 27 27 27 28 28 29 30 29 28 27 26 25 24 23 23 24 24 24 24 26 27 26 26 27 27 28 28 29 28 28 29 31 31 31 31 31 31 32 32 32 32 32 32 32 33 34 34 35 35 36 37 37 38 38 38 37 36 34 32 32 32 32 32 32 32 31 32 32 32 31 31 30
26 25 24 25 25 25 25 26 27 27 26 26 26 26 26 26 27 28 30 30 30 29 28 28 27 26 25 24 24 25 25 24 24 26 27 27 27 27 27 27 28 28 28 28 30 31 31 32 32 32 32 33 33 33 33 33 33 33 33 33 34 36 37 38 38 39 39 39 39 38 38 36 35 34 34 33 32 32 33 33 33 33 34 33 32 32
23 21 21 22 23 23 24 25 26 26 25 26 26 26 26 26 27 29 30 30 28 28 28 28 27 27 26 25 25 25 25 25 25 26 27 27 27 27 27 28 29 29 30 31 31 32 33 34 34 34 34 34 34 34 34 35 35 34 33 33 34 35 36 37 38 39 39 39 39 39 39 38 38 37 35 33 33 32 33 33 33 34 34 34 34 33
23 22 20 20 20 21 22 23 22 23 25 27 26 27 27 28 29 30 30 28 27 27 28 27 27 28 27 27 27 26 27 27 28 28 28 28 29 29 29 30 30 30 30 30 31 31 33 33 34 35 36 36 36 36 36 36 36 36 35 35 34 35 36 37 38 38 38 39 39 40 40 40 39 38 37 35 33 32 32 33 33 34 34 34 34 33
21 20 20 21 21 21 21 22 22 21 23 25 26 27 28 29 29 28 27 26 26 27 28 28 28 29 28 28 28 28 28 28 28 29 29 29 30 29 29 29 28 28 29 29 30 31 32 32 33 34 36 37 38 38 37 37 38 38 38 37 36 36 36 37 38 38 39 39 40 41 41 41 41 40 38 36 34 34 33 33 34 34 34 34 33 33
19 20 21 22 23 22 21 23 23 21 22 23 24 25 26 27 27 26 26 25 26 26 27 27 27 27 27 27 27 27 27 27 28 28 28 28 28 28 28 28 28 28 30 31 32 33 33 33 33 33 34 35 36 37 37 38 38 38 38 38 38 38 38 38 39 39 40 40 40 41 41 41 41 41 40 39 38 37 37 36 35 34 34 34 33 32
21 22 21 20 21 24 24 23 22 22 23 24 24 24 25 25 25 26 26 25 25 26 26 26 26 26 26 26 26 26 26 26 27 27 27 27 28 28 28 28 29 30 31 32 32 33 33 33 33 33 33 33 34 35 36 36 37 37 38 38 38 39 39 39 40 40 41 41 41 41 42 42 43 44 44 43 42 41 40 39 37 35 34 34 34 33
22 23 22 21 22 25 25 24 23 23 24 24 24 25 25 25 25 26 27 27 27 27 28 28 28 28 28 28 27 27 27 27 28 28 28 28 29 29 30 30 31 31 32 32 32 31 31 32 33 33 33 33 33 34 34 35 36 36 37 38 39 39 40 40 41 41 42 42 42 43 43 44 44 45 45 44 43 42 41 40 38 36 34 33 34 34
24 24 24 24 24 24 25 24 24 25 25 24 25 25 25 25 26 27 28 28 28 29 29 29 29 29 29 29 29 29 29 29 29 29 29 29 30 30 30 31 31 31 31 31 30 29 29 30 32 33 33 33 34 34 34 35 36 37 38 39 39 40 41 41 42 42 42 43 43 43 43 43 43 43 43 43 42 41 40 40 38 36 33 32 33 33
23 23 23 24 24 24 24 24 24 25 25 25 25 25 25 26 26 27 27 28 28 28 29 29 29 29 29 29 29 29 29 29 29 29 29 30 30 30 30 30 30 30 29 29 28 28 28 28 30 31 32 32 33 33 34 35 35 36 37 38 38 39 40 40 41 42 42 42 42 42 42 41 41 41 40 40 40 39 38 38 37 35 33 31 30 31
21 22 21 22 23 24 24 24 24 25 25 25 25 25 26 26 26 26 27 27 27 27 27 28 28 28 28 28 28 28 28 29 29 29 29 30 30 30 30 29 29 28 27 27 27 27 27 27 28 29 29 30 31 32 33 34 34 35 35 36 37 37 38 38 39 39 40 40 40 40 40 40 39 39 38 38 38 37 37 36 34 33 32 30 29 28
21 21 20 21 23 24 24 24 24 24 24 25 25 25 25 25 26 26 27 27 27 27 27 27 27 27 27 27 27 27 28 28 28 28 28 29 29 29 28 28 27 27 26 26 26 26 27 27 28 28 29 30 30 31 32 33 34 34 35 36 36 37 37 38 38 38 39 39 39 39 40 40 40 39 38 37 36 36 36 35 34 33 32 31 29 28
20 19 19 20 21 21 22 23 23 23 24 24 25 25 25 25 26 26 26 26 26 26 27 27 26 26 26 26 26 26 26 26 26 26 26 27 27 27 27 27 26 26 26 26 26 26 26 27 27 27 28 28 29 30 31 32 33 34 35 36 37 38 39 40 40 40 41 41 41 41 41 41 41 41 41 40 39 37 36 35 35 34 33 31 30 29
Wind_Direction
224 223 224 225 227 227 223 220 220 220 220 221 223 217 212 217 208 208 235 237 227 222 228 221 194 207 232 229 228 223 214 215 216 221 225 230 230 227 230 231 235 240 240 243 244 248 251 249 258 271 277 279 280 279 278 281 282 284 292 298 299 298 299 300 303 306 302 293 285 283 288 293 295 287 280 282 287 290 292 292 292 293 295 295 297 300
223 223 224 224 226 226 222 219 218 216 216 216 218 215 211 217 209 204 227 234 230 220 223 224 196 202 234 232 230 230 223 219 217 221 224 227 229 227 229 231 236 241 240 244 247 248 251 254 264 272 276 278 279 278 279 283 284 289 294 296 296 296 297 299 303 307 304 294 286 286 291 301 306 297 284 283 287 290 291 291 291 293 295 294 294 295
223 223 223 223 224 224 222 219 217 215 218 217 216 213 211 216 205 208 227 230 232 222 217 225 205 203 231 232 231 234 229 226 222 221 223 223 229 230 230 231 236 240 240 244 247 249 255 262 268 271 273 273 274 275 277 281 286 289 290 290 294 297 297 297 299 304 304 295 286 281 282 299 315 311 298 289 288 290 291 291 292 293 293 291 291 290
224 222 222 222 222 223 222 219 215 216 220 219 219 215 211 215 206 214 233 230 230 223 209 225 211 205 228 228 225 229 222 221 220 220 222 220 225 227 227 231 237 240 241 246 248 250 259 265 267 267 266 268 270 273 275 278 282 283 285 291 296 298 296 293 296 302 304 299 289 280 279 294 307 309 305 297 293 293 295 295 293 292 292 291 290 289
224 223 223 223 221 221 221 217 215 218 221 218 217 214 208 211 203 210 231 229 227 220 197 210 211 209 226 224 223 229 221 222 223 222 224 222 222 224 225 232 238 240 242 246 249 252 258 261 263 262 262 266 270 275 279 282 285 287 290 297 300 300 297 294 297 301 305 305 298 290 288 295 300 302 301 297 295 294 296 298 297 295 293 291 290 289
223 223 223 222 221 222 220 216 216 218 220 217 214 210 197 195 204 211 227 231 229 222 209 210 211 214 226 223 223 231 228 226 226 223 225 224 224 225 227 232 237 240 242 244 248 252 256 258 260 261 262 267 272 276 282 285 288 292 294 298 299 298 296 295 296 297 299 298 294 292 291 292 294 294 295 295 294 294 295 298 299 298 297 294 291 288
221 223 223 221 221 221 219 217 217 217 217 216 214 210 192 184 207 211 218 229 231 227 223 222 217 218 231 230 227 230 229 228 224 221 224 226 227 228 228 233 236 239 241 242 247 252 254 255 257 261 266 271 276 279 282 285 288 291 293 295 296 294 292 291 291 291 290 286 286 288 289 290 291 291 291 293 294 295 296 298 298 298 298 296 293 289
220 222 224 221 219 219 218 217 217 215 214 214 215 212 196 184 203 210 207 223 229 228 228 230 224 217 232 236 230 229 230 230 226 222 223 228 231 231 230 233 236 236 240 243 248 252 250 252 257 263 268 273 277 279 280 282 285 286 288 291 291 289 287 287 285 284 283 282 284 288 290 291 290 290 290 290 291 292 293 294 295 295 295 294 294 292
220 220 224 222 219 218 216 215 216 214 211 210 213 213 203 191 194 206 211 218 222 223 225 230 225 213 223 236 231 229 229 227 227 223 222 227 232 234 232 233 236 235 239 245 250 252 250 252 257 261 266 271 274 275 276 278 280 281 283 284 284 283 283 282 282 282 283 284 286 288 289 289 290 290 291 290 290 290 290 290 292 292 293 293 292 291
218 220 224 223 217 216 216 214 215 214 206 202 207 209 207 201 194 193 205 210 204 209 217 225 225 210 216 235 229 225 228 226 229 228 224 228 232 234 234 234 236 236 240 246 250 251 250 251 256 261 266 270 272 273 274 274 276 277 279 280 281 281 282 282 284 286 288 289 289 289 288 289 291 292 292 292 291 290 289 289 290 291 292 291 290 289
216 219 223 222 214 214 217 213 215 213 202 197 202 203 204 206 204 199 203 207 201 210 216 220 226 209 207 229 228 221 226 225 228 230 226 229 231 232 233 234 236 238 241 245 247 249 250 252 257 263 267 269 271 271 271 272 273 275 275 276 278 280 282 285 287 289 289 289 289 289 290 291 292 292 291 292 292 291 291 290 291 293 293 291 289 290
213 220 222 220 212 212 214 213 215 210 197 197 203 201 200 203 207 207 205 205 203 214 221 216 218 211 206 222 229 225 227 226 226 228 225 226 228 228 230 232 236 239 241 243 245 247 250 255 259 263 267 268 270 270 271 270 269 270 273 275 277 279 283 285 287 288 288 288 289 289 290 291 292 292 292 292 292 292 292 292 292 294 295 293 291 290
213 219 219 215 210 210 209 209 210 203 198 204 204 199 199 200 207 210 209 211 207 210 221 212 206 212 209 218 227 227 227 229 229 228 224 222 222 223 226 231 235 237 240 241 243 247 251 256 260 262 265 267 270 271 269 267 268 270 273 275 278 279 281 284 285 286 286 287 288 289 289 290 290 291 291 291 291 292 293 292 292 292 293 293 292 290
209 217 215 210 208 207 205 207 204 200 205 211 206 200 201 202 207 210 209 215 214 208 210 198 196 213 215 217 225 226 224 227 229 226 222 217 215 219 224 228 232 236 239 240 243 248 253 257 260 262 265 268 271 271 268 267 269 272 275 278 281 283 285 287 287 287 288 289 290 290 291 291 291 291 292 292 292 293 293 292 291 290 289 288 288 288
203 214 214 208 207 206 205 208 205 204 211 213 206 200 200 203 211 213 210 215 218 214 207 192 200 218 221 220 225 226 224 225 225 223 219 215 214 217 222 227 231 234 237 240 244 250 254 257 260 263 267 269 270 270 268 268 270 272 277 282 286 290 292 292 292 291 292 293 293 294 295 296 297 298 299 300 299 298 296 294 292 290 288 287 286 286
206 216 215 207 207 208 207 209 205 204 211 212 206 202 199 200 212 218 213 211 216 216 210 199 202 215 221 221 224 226 226 224 220 220 219 215 215 218 222 226 230 232 235 239 244 249 254 256 259 263 266 267 267 269 270 270 271 274 279 284 288 291 292 293 293 293 293 293 294 297 299 300 301 303 304 304 303 301 299 298 296 293 289 288 287 286
212 217 218 209 205 208 209 209 206 204 207 209 208 209 205 197 201 217 214 209 208 209 212 209 209 216 220 220 222 223 225 223 218 217 218 217 218 221 224 227 229 231 234 238 242 248 254 258 261 263 263 264 265 268 270 272 274 278 280 284 286 288 289 290 291 292 292 293 296 299 301 302 303 304 305 304 303 302 300 299 298 296 292 288 287 286
213 210 217 215 209 210 209 207 207 203 203 207 211 212 207 198 197 207 208 208 207 204 212 220 220 222 223 223 222 221 222 223 220 218 218 218 219 221 224 226 228 231 233 236 242 249 258 263 264 265 265 265 268 270 271 272 274 276 278 280 283 285 287 288 289 290 291 294 297 299 300 302 304 305 305 305 304 303 301 299 298 296 293 290 287 285
209 201 211 217 211 212 210 207 209 206 203 208 212 213 210 206 209 211 206 207 209 205 208 221 225 225 227 229 227 223 224 224 223 221 219 218 220 222 224 227 229 231 233 237 244 253 263 266 267 268 268 269 272 273 272 271 272 274 276 279 281 283 285 287 289 290 292 295 297 299 301 303 304 305 305 305 304 303 301 298 296 295 293 290 286 284
202 197 206 214 209 210 211 209 211 214 210 206 206 211 212 213 216 218 217 211 207 205 207 217 225 228 229 231 228 224 225 226 224 222 219 219 221 223 226 229 231 234 237 242 248 256 264 268 269 270 270 270 271 272 272 270 270 272 275 278 279 281 283 286 288 290 293 296 297 299 301 302 302 303 304 305 304 302 299 297 297 296 294 291 288 287
198 197 204 208 205 207 210 212 214 215 212 209 208 208 209 212 214 215 218 214 209 210 211 216 223 227 229 230 227 224 223 223 223 222 221 222 224 226 229 232 235 239 243 247 251 257 264 269 270 270 269 268 269 270 270 268 269 271 274 276 278 280 283 285 287 290 292 294 296 297 298 299 299 301 304 304 304 303 299 298 298 298 297 294 292 292
197 199 205 206 206 208 212 215 214 211 211 214 216 212 208 211 211 211 214 214 211 213 216 221 225 226 229 231 228 225 221 219 221 222 222 224 227 230 234 237 240 244 248 252 255 259 265 269 269 269 268 268 268 269 269 268 269 272 273 275 277 279 281 283 285 287 289 291 292 294 294 294 296 300 303 305 305 304 301 299 300 301 300 298 295 295
195 198 205 209 211 210 210 212 210 208 211 214 212 207 205 207 208 211 214 213 212 208 212 227 231 228 230 232 230 228 222 218 220 220 221 225 229 233 237 240 244 247 251 255 257 260 264 267 268 268 268 267 267 267 266 266 268 269 271 272 274 276 278 280 282 285 287 289 290 290 291 293 296 300 303 305 306 304 301 299 300 302 302 300 297 297
195 196 200 207 210 206 206 209 207 205 208 209 205 200 201 204 205 208 210 213 214 205 205 222 230 229 230 231 230 227 222 219 218 219 221 225 229 234 238 242 246 250 253 256 257 259 263 266 267 267 267 266 265 264 264 265 266 267 269 270 272 274 276 279 281 284 286 288 288 288 290 294 297 299 302 304 305 304 302 299 300 302 303 302 301 300
197 195 195 200 200 195 196 201 205 204 205 206 204 202 203 205 205 200 200 211 216 208 208 216 224 227 229 231 231 226 222 222 221 222 224 226 231 236 240 244 247 250 252 254 256 259 263 265 266 265 265 264 263 262 262 264 266 267 268 269 271 273 275 278 280 283 285 285 285 288 291 294 296 298 301 302 303 304 304 301 301 303 304 306 306 304
198 195 195 198 199 197 197 199 204 206 206 207 205 206 205 205 206 200 197 211 217 213 213 215 222 230 229 229 231 228 226 226 226 227 229 230 234 238 242 245 247 248 251 253 257 260 263 264 263 262 260 259 259 260 262 264 265 266 267 268 269 272 274 276 278 281 282 282 285 290 293 294 295 297 299 301 302 304 305 304 304 305 305 307 308 307
195 194 195 196 199 203 204 207 208 204 203 206 205 204 204 203 206 206 204 211 215 213 214 216 222 233 234 232 231 229 228 229 228 230 233 234 236 239 242 245 247 249 252 254 257 259 260 260 259 256 254 255 256 259 261 263 263 264 265 267 269 271 274 275 277 278 279 281 287 292 293 293 293 295 297 300 301 303 304 304 304 305 306 307 308 307
193 196 196 194 194 196 197 203 208 203 201 206 204 197 198 197 199 205 210 215 215 213 216 219 220 227 234 237 235 232 230 229 229 231 234 236 237 240 243 245 247 250 252 253 255 255 256 255 254 252 251 253 256 258 260 262 263 264 265 267 269 271 273 274 275 276 276 280 287 291 290 289 289 292 296 299 301 303 304 304 304 305 306 306 306 306
193 196 195 195 196 193 191 194 199 198 199 205 204 197 195 194 193 198 206 210 213 216 220 224 224 225 231 236 235 234 232 229 230 232 234 237 239 240 243 245 247 248 249 250 251 251 252 252 252 252 253 255 257 259 260 261 261 262 264 266 268 270 271 272 273 274 276 280 286 289 287 285 285 289 293 296 299 302 304 305 305 306 306 306 306 306
193 195 194 197 200 195 192 192 191 191 195 199 201 200 200 198 195 199 204 205 207 212 215 219 222 222 227 231 231 231 230 229 231 232 233 235 237 238 240 242 243 244 245 246 247 248 250 252 253 255 256 257 258 259 259 259 260 261 263 265 266 268 269 271 272 274 276 281 285 286 285 282 283 288 291 294 298 301 304 305 305 305 305 305 306 306
191 194 194 196 199 198 196 193 190 191 194 195 197 200 201 201 199 202 206 207 208 211 211 212 216 218 222 226 227 228 229 230 231 233 232 233 234 235 237 239 240 241 241 242 244 246 250 253 255 257 258 259 260 259 259 259 260 261 263 264 265 267 269 271 273 275 278 280 283 283 281 279 282 286 290 293 295 299 301 303 304 304 304 304 304 305
188 192 194 194 197 199 195 193 193 194 195 196 198 199 199 200 201 203 205 208 210 211 210 213 216 217 219 222 224 226 230 231 233 236 237 236 236 235 237 238 237 237 237 239 241 245 250 254 256 258 259 260 261 260 260 259 260 261 262 263 265 267 269 271 273 275 278 279 280 279 278 278 281 284 288 291 293 296 298 299 301 302 301 302 302 303
187 191 193 193 195 198 196 193 195 198 197 196 197 198 199 200 203 205 208 211 212 212 215 219 222 224 227 230 230 231 233 235 236 238 239 239 238 237 236 235 233 232 234 237 240 245 250 253 256 258 259 260 261 261 260 259 259 260 261 262 264 266 268 270 272 274 276 277 277 276 276 277 280 282 285 289 292 294 296 297 297 297 297 298 299 300
189 189 190 192 196 201 200 197 197 202 204 201 200 202 203 203 204 206 211 216 218 219 223 227 232 234 235 237 238 237 236 237 237 237 238 237 236 235 233 232 231 232 234 237 241 245 249 253 256 257 259 260 260 261 260 259 258 258 259 261 262 265 267 269 271 272 274 275 276 277 277 279 281 283 285 288 291 293 295 295 295 294 294 295 296 298
190 189 188 192 197 202 203 201 202 206 205 203 204 206 206 207 209 211 214 219 223 225 228 231 234 236 236 237 238 238 237 238 237 235 234 234 233 232 232 232 232 233 236 240 242 245 249 253 255 256 258 259 259 260 260 259 258 258 259 260 262 264 266 267 269 270 272 274 277 279 280 282 283 285 287 289 291 293 294 294 293 292 292 293 296 298
193 192 190 192 197 202 204 203 206 209 205 202 206 209 210 210 212 215 218 221 224 227 230 232 234 236 236 235 235 235 234 235 235 234 233 232 232 231 231 233 235 237 239 243 245 247 250 253 254 255 256 258 258 258 259 259 259 259 260 261 262 264 265 266 268 270 272 275 278 280 282 284 285 287 288 289 290 292 292 292 291 290 290 292 296 299
192 194 194 195 197 201 203 205 207 210 209 207 208 211 213 213 215 216 218 222 226 228 231 234 236 236 236 235 233 231 228 228 230 231 232 232 232 234 235 236 239 242 243 246 249 252 254 255 255 255 255 257 258 258 258 259 260 261 262 263 264 265 266 266 268 271 274 277 279 281 283 285 286 287 288 288 289 289 290 290 290 289 288 291 294 297
188 191 195 199 198 198 203 205 206 208 210 210 210 212 214 216 219 221 222 225 230 232 234 236 237 238 238 236 232 227 226 228 229 229 231 232 233 235 238 239 241 243 245 248 251 254 255 256 257 257 257 257 258 258 259 260 262 263 264 265 266 267 269 269 271 273 276 278 280 281 282 283 284 285 287 288 288 288 288 288 288 288 288 289 291 295
187 190 196 199 199 201 204 206 208 210 212 211 212 213 215 216 218 222 224 226 230 232 234 236 238 239 240 238 233 229 229 235 236 231 230 233 234 235 237 240 242 245 247 250 253 254 255 256 257 257 258 259 260 260 260 262 263 265 266 267 269 269 271 272 274 275 276 278 279 280 281 281 282 284 286 287 287 287 287 287 287 287 288 289 290 293
184 188 192 194 197 202 206 208 211 213 213 213 213 214 216 217 219 223 226 227 229 231 234 236 238 241 242 240 237 235 236 242 243 237 232 234 236 239 241 242 244 247 250 253 255 256 257 257 257 257 258 260 262 262 261 262 264 266 268 269 269 270 271 272 273 274 275 276 277 279 280 281 283 284 285 285 285 286 286 285 286 286 287 288 289 291
186 189 191 192 197 201 205 210 215 214 212 214 214 215 218 219 221 225 228 228 230 233 235 236 239 241 242 241 241 242 242 243 244 243 241 241 242 243 245 246 248 252 255 257 258 259 259 259 259 259 260 261 262 263 262 262 263 267 270 271 270 270 270 271 272 273 274 275 276 278 279 281 283 284 284 284 284 283 283 283 284 285 286 288 289 290
192 194 192 194 199 200 204 210 215 215 214 215 215 217 220 222 224 227 229 229 230 234 236 237 239 241 243 244 245 246 245 244 244 245 247 248 248 249 249 250 252 255 256 258 258 259 259 260 261 261 261 261 262 263 263 263 263 266 270 272 273 272 271 272 273 273 274 276 277 279 280 281 283 284 284 284 284 283 283 283 283 283 284 286 288 289
192 193 195 201 204 203 205 211 215 215 216 217 219 221 224 226 228 231 234 233 233 236 238 240 241 242 244 245 245 246 245 245 246 247 248 248 249 249 250 250 251 254 256 258 260 260 261 262 262 262 262 262 263 264 264 265 265 267 269 272 273 273 272 272 273 274 275 276 278 280 281 281 282 282 282 283 284 285 285 284 283 283 283 284 285 287
195 195 199 204 205 204 209 214 217 219 221 222 224 226 228 230 230 232 234 234 234 236 238 240 241 242 243 243 243 244 243 243 244 246 247 247 247 248 249 250 253 256 259 262 263 264 263 262 262 263 264 264 264 265 266 267 268 269 271 272 273 274 274 275 276 277 277 278 279 280 281 281 282 283 283 284 285 285 286 286 285 283 282 282 283 285
206 206 207 206 205 207 212 214 215 218 221 223 224 226 228 231 232 233 234 234 234 236 237 239 241 242 243 243 243 243 243 244 244 245 247 248 248 249 251 254 257 260 262 264 265 265 264 261 260 262 264 266 267 267 268 269 270 271 272 273 274 275 276 277 278 279 279 280 280 281 282 282 283 284 285 285 285 285 285 285 285 284 282 282 282 282
215 215 215 214 213 214 217 218 218 221 225 227 228 229 231 234 235 236 237 238 239 240 241 243 244 245 246 247 246 246 246 245 246 247 248 249 250 251 253 255 257 259 261 264 265 265 262 259 258 261 265 268 269 270 271 272 273 274 275 276 277 278 278 278 278 278 279 280 280 281 282 282 283 283 284 285 285 285 284 284 284 283 281 280 279 280
217 217 218 220 221 222 223 225 227 229 232 233 234 235 237 237 238 239 240 241 242 243 244 245 246 247 248 248 247 247 247 247 248 248 249 250 251 252 253 254 256 259 261 263 264 263 261 259 260 263 267 270 271 272 274 274 276 277 278 279 280 280 280 280 279 279 279 279 280 280 281 281 281 282 283 283 283 283 283 283 282 281 280 278 276 276
220 220 222 224 225 227 228 229 231 233 235 236 238 238 239 239 239 240 240 241 242 243 244 244 245 245 246 246 246 246 247 247 247 248 249 249 250 251 252 254 256 259 261 262 263 264 263 263 264 266 269 272 273 275 276 277 278 279 280 280 281 281 281 281 281 281 280 280 280 280 280 280 280 280 281 281 281 281 281 282 282 282 281 279 275 273
218 220 222 225 226 227 229 230 231 233 234 236 238 239 239 240 240 240 241 242 242 242 243 243 243 243 243 244 245 245 246 246 246 246 247 248 249 251 253 255 258 261 263 265 267 268 269 270 272 273 275 277 278 279 280 281 281 281 281 281 281 280 281 281 281 281 281 281 281 280 280 280 279 279 279 279 279 280 281 281 282 283 282 281 277 273
215 216 217 220 223 225 226 228 230 232 233 234 236 237 238 239 239 239 240 240 241 241 241 241 241 241 241 242 242 243 244 245 245 246 248 249 251 254 256 259 262 264 266 268 270 272 274 276 277 278 279 280 281 281 282 281 281 281 281 280 280 280 279 279 279 279 279 279 279 279 278 278 278 278 278 277 277 279 280 280 281 282 282 281 280 275
220 220 220 223 226 229 230 231 233 234 235 236 236 236 237 237 237 238 238 238 238 239 239 240 240 240 240 240 240 241 243 244 246 248 249 251 254 256 258 260 263 265 267 269 271 273 275 277 278 279 280 280 281 281 281 281 280 280 280 279 279 279 279 279 278 278 278 277 277 276 276 276 276 276 276 276 275 275 276 277 278 279 279 280 279 278
Height
5733 5735 5737 5742 5746 5749 5752 5755 5759 5762 5765 5768 5771 5774 5777 5777 5781 5784 5781 5780 5786 5790 5793 5796 5802 5803 5797 5796 5800 5804 5807 5809 5810 5812 5813 5814 5815 5817 5818 5819 5818 5817 5818 5819 5820 5822 5824 5826 5826 5825 5824 5823 5824 5825 5825 5825 5826 5826 5826 5827 5827 5827 5828 5827 5827 5827 5826 5826 5825 5824 5824 5823 5822 5821 5820 5819 5818 5818 5818 5818 5817 5816 5815 5814 5814 5815
5728 5731 5735 5740 5743 5745 5749 5752 5755 5759 5762 5764 5767 5770 5773 5775 5780 5783 5778 5777 5783 5788 5791 5792 5800 5801 5794 5794 5799 5802 5804 5806 5808 5810 5811 5812 5812 5814 5816 5816 5815 5815 5816 5817 5818 5820 5822 5824 5824 5823 5823 5823 5823 5823 5823 5823 5824 5824 5825 5825 5825 5825 5825 5825 5825 5824 5824 5823 5822 5822 5822 5821 5820 5820 5819 5818 5817 5817 5817 5816 5815 5814 5813 5812 5812 5813
5724 5728 5733 5737 5739 5741 5745 5748 5753 5756 5757 5759 5763 5767 5771 5773 5778 5778 5773 5775 5781 5785 5788 5789 5796 5798 5791 5793 5798 5799 5801 5803 5806 5808 5808 5810 5810 5812 5813 5812 5812 5812 5814 5815 5816 5818 5820 5821 5821 5821 5821 5821 5821 5821 5821 5822 5822 5822 5822 5823 5824 5824 5824 5823 5823 5822 5821 5821 5821 5821 5821 5820 5819 5819 5818 5817 5816 5815 5815 5814 5812 5811 5810 5810 5810 5810
5721 5726 5730 5732 5735 5738 5740 5745 5750 5751 5752 5756 5761 5766 5769 5770 5776 5776 5771 5774 5779 5782 5788 5790 5793 5794 5790 5792 5796 5796 5799 5801 5803 5805 5805 5807 5807 5808 5809 5809 5810 5811 5812 5813 5815 5817 5818 5818 5819 5819 5819 5818 5819 5819 5820 5820 5820 5820 5820 5821 5822 5822 5822 5821 5821 5820 5820 5819 5819 5819 5819 5819 5818 5817 5816 5816 5815 5813 5812 5811 5810 5809 5809 5808 5808 5808
5720 5724 5726 5727 5731 5734 5737 5743 5746 5747 5750 5755 5759 5763 5767 5770 5775 5775 5768 5770 5776 5780 5786 5788 5789 5789 5788 5791 5793 5794 5797 5798 5799 5801 5802 5804 5804 5805 5806 5807 5808 5810 5811 5813 5814 5815 5816 5816 5816 5816 5816 5817 5817 5817 5817 5817 5817 5817 5818 5818 5819 5819 5819 5819 5818 5818 5818 5817 5817 5817 5817 5817 5816 5815 5815 5814 5812 5811 5810 5809 5808 5808 5808 5807 5806 5806
5716 5719 5720 5724 5728 5731 5735 5739 5741 5744 5748 5752 5755 5758 5763 5769 5773 5771 5766 5767 5772 5776 5780 5782 5784 5784 5785 5788 5790 5791 5793 5794 5796 5798 5798 5800 5801 5802 5804 5805 5807 5808 5809 5812 5813 5814 5815 5814 5813 5813 5814 5815 5816 5815 5814 5814 5814 5814 5815 5815 5816 5816 5816 5816 5816 5816 5816 5816 5816 5816 5815 5815 5814 5813 5812 5811 5809 5808 5807 5806 5806 5806 5805 5805 5804 5804
5711 5714 5717 5721 5724 5728 5732 5736 5739 5742 5746 5749 5752 5755 5760 5766 5770 5768 5766 5765 5769 5773 5775 5777 5781 5783 5783 5785 5787 5789 5790 5791 5793 5795 5795 5795 5797 5799 5802 5803 5805 5807 5808 5810 5811 5812 5813 5813 5811 5811 5811 5812 5813 5813 5812 5812 5812 5812 5812 5813 5814 5814 5815 5815 5815 5815 5815 5815 5814 5813 5813 5812 5812 5811 5810 5809 5808 5806 5804 5803 5803 5803 5802 5801 5801 5801
5707 5711 5713 5717 5720 5724 5729 5733 5736 5740 5743 5747 5750 5753 5756 5761 5767 5766 5763 5763 5767 5772 5773 5775 5779 5783 5782 5781 5784 5786 5787 5788 5790 5791 5792 5792 5794 5797 5800 5802 5804 5806 5807 5807 5809 5810 5811 5811 5810 5810 5810 5810 5811 5811 5810 5810 5810 5810 5811 5811 5812 5813 5813 5813 5813 5813 5813 5813 5812 5811 5810 5810 5809 5808 5807 5807 5806 5804 5802 5800 5800 5800 5800 5799 5798 5798
5705 5708 5709 5712 5717 5721 5726 5730 5733 5736 5741 5745 5747 5750 5752 5756 5763 5765 5762 5763 5767 5771 5772 5772 5774 5780 5779 5778 5780 5782 5783 5785 5786 5787 5789 5789 5791 5794 5797 5799 5801 5803 5804 5805 5807 5808 5809 5809 5809 5809 5809 5809 5809 5809 5809 5809 5809 5809 5810 5810 5811 5811 5811 5811 5811 5811 5811 5810 5810 5809 5808 5807 5806 5806 5805 5804 5803 5802 5800 5798 5797 5797 5797 5797 5796 5795
5702 5705 5704 5708 5715 5719 5723 5727 5730 5733 5738 5743 5745 5746 5749 5752 5757 5761 5761 5762 5766 5769 5770 5769 5769 5776 5778 5775 5776 5779 5780 5781 5783 5784 5785 5787 5789 5792 5794 5796 5798 5800 5802 5803 5805 5806 5807 5807 5807 5807 5807 5807 5808 5808 5808 5808 5808 5808 5808 5809 5809 5809 5809 5809 5809 5809 5808 5808 5807 5806 5805 5805 5804 5803 5802 5801 5800 5799 5798 5796 5794 5793 5793 5794 5793 5792
5699 5699 5698 5705 5713 5717 5721 5724 5727 5731 5735 5740 5742 5742 5746 5749 5751 5755 5758 5761 5764 5765 5767 5767 5767 5772 5775 5773 5774 5776 5776 5778 5779 5780 5782 5785 5787 5790 5792 5794 5796 5798 5799 5801 5802 5803 5804 5805 5805 5805 5805 5806 5806 5806 5806 5807 5807 5807 5807 5807 5807 5806 5807 5807 5806 5806 5805 5805 5804 5804 5803 5802 5801 5801 5800 5799 5798 5796 5795 5794 5792 5791 5790 5790 5789 5788
5693 5693 5696 5704 5711 5713 5718 5721 5724 5729 5733 5735 5735 5738 5742 5746 5748 5750 5753 5756 5759 5761 5763 5765 5767 5769 5770 5771 5772 5773 5773 5775 5776 5777 5780 5783 5785 5787 5789 5791 5793 5795 5797 5799 5800 5801 5802 5803 5803 5803 5804 5804 5804 5804 5805 5805 5805 5805 5804 5804 5804 5804 5804 5804 5804 5803 5803 5802 5802 5801 5800 5799 5799 5798 5797 5796 5796 5794 5793 5791 5790 5789 5787 5786 5785 5785
5689 5691 5695 5701 5706 5709 5714 5717 5719 5725 5728 5727 5730 5735 5739 5742 5744 5746 5749 5750 5753 5758 5761 5762 5766 5767 5768 5768 5767 5768 5769 5771 5772 5774 5778 5781 5783 5785 5787 5789 5791 5793 5795 5797 5798 5799 5800 5801 5801 5801 5801 5801 5802 5802 5802 5802 5802 5802 5802 5802 5802 5802 5802 5802 5802 5801 5801 5800 5799 5799 5798 5797 5796 5795 5794 5794 5793 5792 5790 5788 5787 5785 5784 5783 5782 5782
5688 5689 5691 5696 5701 5705 5710 5712 5715 5719 5720 5722 5727 5732 5735 5738 5740 5741 5745 5747 5749 5755 5758 5761 5764 5765 5763 5762 5761 5763 5766 5767 5770 5774 5776 5778 5780 5783 5785 5787 5789 5791 5793 5795 5796 5797 5798 5799 5799 5799 5799 5799 5799 5800 5800 5800 5800 5800 5800 5800 5800 5800 5800 5800 5799 5798 5798 5797 5796 5796 5795 5794 5793 5792 5792 5791 5789 5788 5787 5786 5784 5782 5781 5780 5779 5778
5685 5684 5686 5692 5697 5701 5706 5708 5712 5716 5717 5720 5726 5729 5732 5736 5737 5739 5742 5746 5748 5752 5756 5760 5763 5761 5758 5758 5758 5760 5763 5765 5769 5772 5774 5776 5778 5780 5783 5785 5788 5790 5791 5793 5794 5795 5796 5797 5797 5797 5797 5797 5797 5797 5797 5797 5797 5797 5797 5797 5797 5797 5796 5796 5795 5795 5794 5794 5793 5793 5792 5791 5790 5789 5788 5787 5786 5785 5784 5783 5781 5779 5778 5777 5775 5775
5681 5682 5686 5691 5694 5698 5702 5705 5710 5713 5715 5720 5723 5725 5729 5734 5738 5739 5742 5745 5748 5750 5753 5756 5757 5753 5753 5755 5757 5759 5762 5764 5767 5769 5771 5773 5776 5778 5781 5783 5786 5788 5789 5791 5792 5793 5794 5795 5795 5795 5795 5795 5795 5795 5795 5795 5795 5795 5795 5794 5794 5794 5793 5793 5792 5792 5791 5791 5790 5789 5789 5788 5787 5786 5784 5783 5782 5780 5779 5778 5778 5777 5775 5774 5772 5771
5678 5683 5686 5687 5691 5695 5699 5703 5707 5709 5713 5717 5719 5722 5727 5732 5737 5739 5740 5743 5745 5747 5749 5750 5749 5748 5750 5753 5754 5756 5759 5762 5764 5766 5769 5771 5774 5777 5779 5782 5784 5785 5787 5789 5790 5791 5792 5792 5793 5793 5793 5793 5793 5793 5793 5792 5792 5792 5792 5792 5792 5791 5791 5791 5790 5789 5789 5788 5787 5786 5785 5784 5784 5783 5781 5780 5779 5777 5776 5774 5774 5773 5772 5770 5769 5768
5680 5684 5684 5685 5689 5692 5696 5701 5704 5706 5711 5714 5716 5721 5725 5728 5731 5734 5737 5740 5742 5744 5747 5746 5746 5747 5749 5750 5751 5753 5756 5759 5761 5764 5767 5770 5772 5775 5777 5780 5782 5784 5785 5787 5788 5789 5789 5790 5790 5790 5791 5791 5791 5791 5790 5790 5790 5790 5790 5789 5789 5789 5789 5788 5788 5787 5786 5785 5784 5783 5782 5781 5780 5779 5778 5777 5776 5774 5773 5771 5770 5770 5769 5768 5766 5765
5679 5683 5683 5684 5688 5691 5695 5699 5701 5703 5708 5711 5715 5719 5722 5724 5725 5727 5732 5735 5737 5741 5744 5743 5743 5745 5747 5748 5750 5753 5755 5757 5759 5762 5765 5768 5770 5773 5775 5777 5780 5781 5783 5784 5786 5787 5787 5787 5788 5788 5788 5788 5788 5788 5788 5788 5788 5787 5787 5787 5787 5786 5786 5786 5785 5784 5783 5782 5781 5780 5779 5778 5777 5776 5776 5774 5773 5772 5770 5769 5767 5766 5765 5764 5763 5762
5676 5680 5680 5682 5685 5688 5692 5695 5697 5701 5705 5709 5713 5716 5719 5722 5724 5726 5728 5731 5734 5738 5740 5740 5741 5744 5745 5746 5749 5752 5753 5755 5757 5760 5763 5765 5768 5770 5773 5775 5777 5779 5780 5782 5783 5784 5785 5785 5785 5786 5786 5786 5786 5786 5785 5786 5785 5785 5784 5784 5784 5783 5783 5783 5782 5781 5780 5779 5778 5777 5776 5775 5774 5774 5773 5772 5770 5769 5768 5766 5764 5763 5761 5759 5759 5758
5674 5676 5678 5679 5682 5685 5688 5691 5695 5700 5703 5705 5708 5712 5715 5718 5721 5725 5726 5728 5732 5734 5736 5738 5740 5741 5742 5743 5745 5748 5750 5753 5755 5758 5761 5763 5766 5768 5770 5772 5774 5776 5778 5779 5781 5782 5782 5783 5783 5783 5783 5783 5783 5783 5783 5783 5783 5782 5782 5781 5781 5780 5780 5779 5779 5778 5777 5776 5775 5775 5774 5773 5772 5771 5771 5769 5768 5766 5765 5763 5762 5760 5757 5755 5754 5754
5671 5674 5676 5678 5679 5682 5687 5691 5696 5699 5701 5702 5706 5711 5714 5716 5718 5721 5722 5725 5729 5731 5734 5737 5738 5739 5739 5739 5741 5743 5746 5750 5753 5756 5759 5761 5764 5766 5767 5769 5771 5773 5775 5777 5778 5779 5780 5780 5780 5780 5780 5780 5780 5780 5780 5780 5779 5779 5778 5778 5778 5777 5777 5777 5776 5775 5775 5774 5773 5772 5771 5771 5770 5769 5768 5767 5765 5764 5762 5761 5759 5757 5755 5753 5751 5750
5668 5672 5675 5676 5679 5682 5686 5690 5694 5697 5699 5702 5706 5711 5714 5715 5716 5718 5720 5723 5726 5730 5735 5737 5737 5736 5736 5738 5739 5741 5745 5749 5751 5754 5756 5758 5761 5763 5765 5767 5769 5771 5773 5774 5775 5776 5777 5777 5777 5777 5777 5777 5777 5777 5777 5777 5776 5776 5775 5775 5775 5774 5774 5774 5773 5773 5772 5772 5771 5770 5769 5768 5767 5766 5765 5764 5763 5761 5760 5758 5757 5755 5752 5750 5748 5747
5665 5668 5673 5676 5679 5682 5685 5689 5692 5695 5697 5700 5703 5707 5711 5713 5714 5717 5721 5724 5726 5729 5733 5735 5734 5732 5733 5736 5738 5740 5744 5746 5748 5751 5753 5756 5758 5761 5763 5764 5766 5768 5770 5771 5772 5773 5773 5773 5773 5773 5773 5774 5774 5774 5774 5774 5773 5773 5772 5772 5772 5772 5771 5771 5771 5770 5769 5769 5769 5768 5767 5765 5764 5763 5762 5761 5760 5759 5757 5756 5754 5752 5750 5748 5746 5744
5663 5666 5670 5674 5676 5679 5682 5685 5687 5689 5693 5697 5699 5702 5706 5710 5713 5716 5721 5724 5724 5726 5729 5731 5730 5729 5731 5733 5735 5738 5741 5743 5746 5748 5751 5754 5756 5758 5760 5762 5764 5766 5767 5768 5769 5769 5770 5770 5770 5770 5770 5771 5771 5771 5771 5771 5770 5770 5769 5769 5769 5769 5768 5768 5768 5768 5767 5767 5766 5765 5764 5763 5762 5761 5760 5759 5758 5756 5755 5753 5752 5750 5748 5746 5744 5741
5662 5666 5669 5671 5673 5674 5676 5679 5681 5685 5690 5694 5697 5699 5703 5708 5711 5714 5719 5720 5721 5724 5727 5728 5727 5727 5729 5730 5732 5735 5738 5741 5744 5746 5749 5751 5754 5756 5757 5759 5761 5763 5764 5765 5765 5765 5766 5766 5766 5767 5767 5767 5767 5768 5768 5767 5767 5767 5766 5766 5766 5765 5765 5765 5765 5765 5765 5764 5764 5763 5762 5760 5759 5758 5757 5756 5755 5754 5753 5751 5749 5748 5746 5744 5742 5739
5661 5664 5666 5668 5671 5673 5676 5679 5682 5684 5688 5691 5694 5697 5701 5706 5709 5713 5716 5717 5718 5722 5725 5725 5724 5725 5726 5728 5730 5733 5735 5738 5741 5744 5746 5748 5751 5753 5754 5756 5758 5759 5760 5761 5761 5762 5762 5762 5762 5763 5763 5764 5764 5764 5764 5764 5764 5763 5763 5763 5762 5762 5762 5762 5762 5762 5762 5761 5761 5760 5759 5757 5757 5756 5755 5754 5752 5751 5750 5749 5747 5745 5743 5742 5740 5737
5659 5661 5663 5665 5667 5671 5675 5679 5682 5684 5687 5690 5693 5696 5701 5705 5708 5711 5714 5715 5717 5720 5721 5720 5721 5723 5724 5725 5728 5731 5734 5736 5739 5741 5743 5745 5748 5750 5751 5753 5754 5756 5757 5757 5757 5758 5758 5758 5759 5759 5760 5760 5760 5761 5761 5760 5760 5760 5760 5760 5760 5759 5759 5759 5759 5759 5758 5758 5758 5757 5756 5755 5754 5753 5752 5751 5750 5749 5747 5746 5744 5743 5741 5739 5738 5735
5657 5659 5662 5665 5666 5669 5672 5675 5679 5683 5687 5689 5692 5695 5699 5702 5705 5708 5710 5712 5714 5715 5715 5716 5718 5720 5721 5723 5726 5729 5731 5734 5737 5739 5740 5742 5744 5746 5748 5750 5751 5752 5753 5753 5754 5754 5754 5754 5755 5755 5756 5756 5757 5757 5757 5757 5757 5757 5757 5757 5757 5757 5756 5756 5756 5755 5755 5755 5755 5754 5754 5753 5752 5751 5750 5749 5748 5746 5745 5743 5741 5740 5738 5737 5735 5734
5655 5657 5660 5663 5665 5668 5670 5673 5677 5681 5683 5686 5689 5692 5695 5698 5702 5704 5706 5707 5709 5710 5711 5713 5716 5717 5719 5721 5724 5726 5729 5731 5733 5735 5737 5739 5741 5743 5744 5746 5747 5748 5749 5749 5750 5750 5750 5750 5751 5752 5752 5753 5753 5753 5753 5754 5754 5754 5754 5754 5754 5754 5753 5753 5753 5752 5752 5752 5752 5751 5751 5750 5749 5748 5747 5746 5745 5743 5742 5740 5739 5737 5735 5734 5733 5731
5652 5654 5658 5661 5664 5667 5670 5673 5676 5678 5681 5684 5686 5689 5692 5695 5698 5700 5702 5704 5706 5708 5709 5711 5714 5715 5717 5719 5721 5724 5726 5728 5730 5732 5734 5736 5738 5739 5741 5742 5743 5744 5745 5746 5746 5746 5746 5747 5748 5748 5749 5749 5749 5750 5750 5750 5750 5750 5750 5750 5751 5750 5750 5750 5750 5749 5749 5749 5748 5748 5747 5747 5746 5745 5744 5743 5742 5741 5739 5737 5736 5734 5732 5731 5730 5729
5651 5653 5656 5660 5663 5665 5668 5671 5674 5677 5679 5682 5683 5685 5688 5691 5694 5697 5699 5701 5703 5706 5707 5709 5712 5714 5716 5717 5719 5721 5723 5725 5727 5730 5731 5733 5734 5736 5737 5738 5740 5740 5741 5742 5743 5743 5743 5744 5744 5745 5745 5745 5746 5746 5746 5747 5747 5747 5747 5747 5747 5747 5746 5746 5746 5746 5745 5745 5745 5744 5744 5743 5743 5741 5740 5740 5739 5738 5736 5735 5733 5731 5729 5728 5727 5726
5650 5653 5655 5659 5662 5664 5667 5670 5672 5675 5677 5679 5681 5683 5686 5689 5692 5695 5697 5699 5701 5704 5706 5708 5710 5713 5714 5716 5718 5720 5721 5723 5725 5727 5728 5730 5731 5732 5733 5735 5736 5737 5738 5739 5739 5740 5740 5741 5741 5742 5742 5742 5742 5743 5743 5743 5743 5743 5743 5743 5743 5743 5743 5743 5742 5742 5742 5742 5741 5741 5740 5740 5739 5738 5737 5736 5735 5734 5733 5732 5730 5728 5726 5725 5724 5723
5649 5652 5656 5659 5661 5663 5666 5669 5671 5673 5674 5676 5679 5682 5685 5688 5690 5693 5695 5697 5699 5702 5705 5707 5709 5711 5713 5715 5716 5718 5719 5721 5722 5724 5725 5727 5728 5729 5730 5732 5733 5734 5735 5736 5737 5737 5738 5738 5738 5738 5739 5739 5739 5739 5739 5739 5740 5740 5739 5740 5740 5739 5739 5739 5739 5739 5738 5738 5738 5737 5737 5736 5735 5735 5734 5732 5732 5731 5730 5728 5727 5725 5724 5722 5721 5720
5648 5651 5654 5658 5660 5662 5664 5667 5669 5670 5672 5675 5678 5681 5684 5687 5690 5692 5694 5696 5697 5700 5703 5705 5707 5709 5711 5713 5714 5715 5717 5718 5720 5721 5723 5724 5725 5727 5728 5729 5730 5731 5732 5733 5734 5734 5735 5735 5735 5735 5736 5736 5736 5736 5736 5736 5736 5736 5736 5736 5736 5736 5736 5735 5735 5735 5735 5734 5734 5733 5733 5732 5732 5731 5730 5729 5728 5727 5726 5724 5723 5722 5720 5719 5718 5717
5648 5650 5653 5656 5658 5660 5662 5665 5667 5668 5671 5675 5677 5680 5683 5686 5688 5691 5693 5694 5696 5698 5701 5703 5705 5707 5709 5710 5712 5713 5714 5716 5717 5719 5720 5722 5723 5724 5725 5726 5728 5729 5730 5730 5731 5731 5732 5732 5732 5732 5732 5732 5732 5732 5732 5732 5732 5732 5732 5732 5732 5732 5732 5732 5731 5731 5731 5731 5730 5730 5729 5728 5728 5727 5726 5725 5724 5723 5722 5721 5719 5718 5717 5716 5715 5714
5646 5649 5652 5654 5656 5659 5661 5663 5665 5667 5670 5673 5676 5678 5681 5684 5686 5688 5690 5692 5694 5697 5699 5701 5703 5704 5706 5708 5709 5711 5712 5714 5715 5716 5718 5719 5720 5721 5723 5724 5725 5726 5727 5727 5728 5728 5729 5729 5729 5729 5729 5729 5729 5729 5729 5729 5728 5728 5728 5728 5728 5728 5728 5728 5728 5727 5727 5726 5726 5726 5725 5724 5724 5723 5721 5720 5719 5718 5718 5717 5716 5715 5714 5713 5712 5711
5645 5648 5650 5653 5656 5658 5659 5661 5663 5666 5668 5671 5674 5677 5679 5682 5684 5687 5689 5691 5692 5694 5696 5698 5700 5702 5703 5705 5707 5708 5710 5711 5712 5714 5715 5716 5717 5719 5720 5721 5722 5723 5724 5724 5725 5725 5725 5725 5725 5725 5725 5725 5725 5725 5725 5725 5725 5724 5724 5724 5724 5724 5724 5724 5724 5723 5723 5722 5722 5721 5721 5720 5720 5719 5717 5716 5715 5714 5714 5713 5712 5711 5710 5709 5708 5708
5645 5647 5649 5652 5655 5656 5658 5660 5663 5664 5666 5669 5672 5675 5678 5680 5683 5685 5687 5688 5689 5691 5694 5695 5697 5699 5701 5703 5704 5705 5707 5708 5710 5711 5712 5713 5715 5716 5717 5718 5719 5720 5720 5721 5721 5721 5721 5721 5721 5721 5722 5722 5721 5721 5721 5721 5721 5720 5720 5720 5720 5720 5719 5719 5719 5719 5718 5718 5717 5717 5717 5716 5716 5715 5714 5712 5711 5711 5710 5709 5708 5707 5706 5706 5705 5704
5644 5646 5648 5651 5653 5655 5657 5659 5660 5662 5665 5668 5671 5673 5676 5678 5680 5682 5683 5685 5687 5689 5691 5693 5695 5696 5698 5700 5701 5703 5705 5706 5707 5708 5709 5710 5711 5713 5714 5715 5716 5716 5717 5718 5718 5717 5717 5717 5717 5718 5718 5718 5717 5717 5717 5717 5716 5716 5716 5716 5716 5716 5715 5715 5714 5714 5714 5713 5713 5713 5712 5712 5711 5711 5710 5709 5708 5707 5706 5705 5704 5703 5702 5702 5701 5701
5644 5646 5647 5650 5652 5654 5656 5657 5658 5661 5664 5666 5669 5671 5674 5676 5678 5679 5679 5682 5685 5687 5688 5690 5692 5694 5695 5697 5699 5701 5702 5703 5704 5705 5706 5707 5708 5710 5711 5712 5712 5713 5713 5714 5714 5713 5713 5713 5713 5714 5714 5713 5713 5713 5713 5713 5712 5712 5712 5712 5712 5712 5711 5711 5710 5710 5710 5709 5709 5709 5708 5708 5707 5706 5706 5705 5704 5703 5702 5701 5700 5699 5698 5698 5697 5697
5643 5645 5647 5649 5651 5653 5654 5656 5657 5659 5662 5664 5666 5669 5671 5672 5674 5675 5677 5680 5683 5685 5686 5688 5690 5692 5693 5695 5696 5698 5699 5700 5701 5702 5703 5704 5705 5706 5707 5708 5709 5709 5709 5709 5709 5709 5709 5709 5709 5709 5709 5709 5708 5708 5708 5708 5708 5708 5708 5708 5708 5707 5707 5707 5706 5705 5705 5705 5705 5704 5703 5703 5702 5701 5701 5701 5700 5699 5699 5697 5696 5695 5695 5694 5693 5693
5642 5645 5647 5648 5649 5651 5653 5654 5656 5658 5660 5662 5664 5666 5668 5670 5672 5674 5676 5679 5681 5683 5684 5686 5687 5689 5690 5692 5693 5695 5696 5697 5698 5699 5700 5701 5702 5703 5703 5704 5705 5705 5705 5705 5705 5705 5705 5705 5705 5704 5704 5704 5704 5703 5703 5703 5703 5704 5704 5704 5703 5702 5702 5702 5701 5701 5701 5701 5700 5699 5698 5698 5697 5697 5696 5696 5696 5695 5694 5693 5692 5691 5691 5690 5690 5689
5641 5643 5644 5646 5648 5650 5651 5652 5655 5657 5658 5660 5662 5664 5666 5668 5670 5672 5674 5676 5678 5680 5681 5682 5684 5686 5687 5689 5690 5691 5692 5693 5694 5695 5696 5697 5698 5699 5700 5700 5701 5701 5701 5701 5701 5701 5701 5701 5700 5700 5700 5700 5699 5699 5699 5699 5699 5699 5699 5699 5698 5698 5698 5697 5697 5696 5696 5696 5695 5694 5693 5693 5692 5691 5691 5691 5691 5690 5690 5689 5688 5687 5686 5686 5685 5685
5640 5641 5643 5645 5647 5648 5649 5651 5654 5656 5657 5658 5661 5662 5664 5666 5668 5670 5672 5673 5675 5677 5678 5679 5681 5683 5684 5685 5686 5688 5689 5690 5691 5692 5692 5693 5694 5695 5696 5696 5697 5697 5697 5697 5697 5696 5696 5696 5696 5696 5696 5695 5695 5695 5695 5695 5695 5695 5694 5694 5693 5693 5693 5692 5692 5692 5691 5691 5690 5689 5688 5688 5687 5686 5686 5685 5685 5685 5684 5684 5683 5683 5682 5681 5681 5681
5638 5640 5642 5643 5645 5646 5648 5650 5652 5653 5655 5657 5659 5660 5662 5664 5665 5667 5669 5670 5672 5674 5675 5677 5678 5679 5680 5682 5683 5684 5685 5686 5687 5688 5689 5690 5690 5691 5692 5692 5692 5692 5692 5693 5692 5692 5692 5692 5692 5692 5692 5691 5691 5691 5691 5691 5691 5690 5690 5689 5688 5688 5688 5687 5687 5686 5686 5685 5685 5684 5683 5683 5682 5681 5680 5679 5679 5679 5678 5678 5678 5678 5678 5677 5676 5676
5636 5638 5640 5641 5642 5644 5646 5648 5650 5651 5653 5654 5656 5658 5660 5661 5663 5664 5666 5667 5669 5670 5672 5673 5675 5676 5677 5678 5679 5680 5681 5682 5684 5684 5685 5686 5686 5687 5687 5688 5688 5688 5688 5688 5688 5689 5689 5688 5688 5688 5688 5687 5687 5687 5687 5687 5686 5685 5685 5684 5684 5683 5682 5682 5681 5681 5680 5680 5679 5679 5678 5677 5676 5676 5675 5674 5674 5673 5673 5673 5672 5672 5673 5672 5672 5671
5634 5636 5638 5639 5641 5642 5644 5646 5647 5649 5650 5652 5653 5655 5656 5658 5660 5661 5662 5664 5665 5667 5668 5670 5671 5672 5673 5674 5675 5677 5678 5679 5680 5681 5681 5682 5683 5683 5684 5684 5684 5685 5685 5685 5685 5685 5685 5685 5685 5685 5684 5684 5683 5683 5683 5682 5682 5681 5680 5680 5679 5678 5677 5676 5675 5675 5674 5674 5673 5673 5672 5672 5671 5671 5670 5669 5668 5668 5668 5667 5667 5667 5667 5667 5668 5667
5632 5634 5635 5637 5639 5640 5642 5643 5645 5646 5648 5649 5650 5652 5653 5655 5657 5658 5659 5661 5662 5663 5665 5666 5667 5669 5670 5671 5672 5673 5674 5675 5676 5677 5678 5678 5679 5680 5680 5681 5681 5681 5681 5681 5681 5681 5681 5681 5681 5681 5681 5680 5679 5679 5678 5678 5677 5677 5676 5675 5674 5673 5672 5671 5670 5669 5669 5668 5667 5667 5666 5666 5665 5665 5665 5664 5663 5663 5663 5662 5662 5661 5661 5662 5662 5663
5629 5631 5633 5634 5636 5637 5639 5640 5642 5644 5645 5646 5648 5649 5651 5652 5653 5655 5656 5657 5659 5660 5661 5663 5664 5665 5667 5668 5669 5670 5671 5672 5673 5674 5674 5675 5676 5676 5677 5677 5678 5678 5678 5678 5678 5678 5678 5678 5678 5678 5677 5676 5676 5675 5674 5673 5673 5672 5672 5670 5669 5668 5668 5667 5666 5664 5664 5663 5662 5661 5661 5660 5659 5659 5659 5659 5659 5658 5658 5657 5657 5657 5657 5656 5657 5657
5628 5630 5631 5632 5633 5635 5637 5638 5640 5641 5642 5644 5645 5646 5648 5649 5650 5651 5653 5654 5656 5657 5658 5660 5661 5662 5663 5664 5666 5667 5668 5668 5669 5670 5671 5672 5672 5673 5674 5674 5675 5675 5675 5675 5675 5675 5675 5675 5674 5674 5674 5673 5672 5671 5670 5669 5669 5668 5667 5666 5665 5664 5662 5661 5660 5659 5658 5657 5656 5656 5655 5654 5654 5653 5653 5653 5653 5653 5653 5653 5652 5652 5652 5652 5652 5652